KC4ANB Weather Reports


time (UTC)temp
C
wind
direction
speed
KPH
gust
KPH
rain 1hr
cm
rain 24hr
cm
rain mn
cm
humidity
%
barometer
mb
20260507031217 18 0.0 1.6 0.10 0.94 0.94 98 1012.6
20260507030217 18 338 3.2 6.4 0.05 0.89 0.89 97 1011.6
20260507025217 18 45 1.6 1.6 0.03 0.86 0.86 97 1011.6
20260507024217 18 23 1.6 1.6 0.18 0.84 0.84 97 1011.1
20260507023217 18 0.0 1.6 0.25 0.84 0.84 97 1011.5
20260507022216 18 113 1.6 3.2 0.48 0.84 0.84 97 1011.4
20260507021216 18 23 3.2 4.8 0.51 0.84 0.84 97 1011.3
20260507020217 18 0 3.2 4.8 0.81 0.84 0.84 96 1011.6
20260507015216 18 45 1.6 3.2 0.84 0.84 0.84 96 1011.3
20260507014216 18 315 4.8 8.0 0.66 0.66 0.66 96 1011.1
20260507013236 18 338 4.8 12.9 0.58 0.58 0.58 95 1010.9
20260507012217 19 23 4.8 8.0 0.36 0.36 0.36 94 1010.9
20260507010237 21 315 1.6 3.2 0.03 0.03 0.03 93 1010.7
20260507005217 22 0.0 0.0 0.00 0.00 0.00 95 1010.3
20260507004217 22 135 1.6 3.2 0.00 0.00 0.00 95 1010.3
20260507003217 22 0.0 0.0 0.00 0.00 0.00 94 1010.7
20260507002216 22 0.0 1.6 0.00 0.00 0.00 94 1010.6
20260507001237 22 0.0 0.0 0.00 0.00 0.00 94 1010.6
20260507000237 22 0.0 0.0 0.00 0.00 0.00 94 1010.1
20260506235216 22 0.0 1.6 0.00 0.00 0.00 94 1010.6
20260506234216 22 0.0 3.2 0.00 0.00 0.00 94 1010.6
20260506233216 22 0.0 0.0 0.00 0.00 0.00 94 1011.4
20260506232216 22 0.0 0.0 0.00 0.00 0.00 93 1010.6
20260506231236 22 180 1.6 3.2 0.00 0.00 0.00 93 1010.4
20260506230216 22 0.0 0.0 0.00 0.00 0.00 93 1011.0
20260506225217 22 0.0 1.6 0.00 0.00 0.00 93 1010.8
20260506224216 22 0.0 1.6 0.00 0.00 0.00 93 1010.7
20260506223216 22 203 1.6 3.2 0.00 0.00 0.00 93 1010.6
20260506222217 22 0.0 1.6 0.00 0.00 0.00 93 1010.8
20260506221216 22 90 1.6 3.2 0.00 0.00 0.00 92 1010.9
20260506220216 22 180 1.6 1.6 0.00 0.00 0.00 91 1010.9
20260506215216 22 180 1.6 4.8 0.00 0.00 0.00 90 1010.8
20260506214216 23 0.0 1.6 0.00 0.00 0.00 88 1010.7
20260506213216 23 225 1.6 3.2 0.00 0.00 0.00 88 1010.6
20260506212216 23 0.0 1.6 0.00 0.00 0.00 87 1010.6
20260506211216 23 0.0 4.8 0.00 0.00 0.00 87 1010.7
20260506210216 23 0.0 1.6 0.00 0.00 0.00 87 1010.7
20260506205236 23 0.0 1.6 0.00 0.00 0.00 86 1010.7
20260506204236 23 270 1.6 3.2 0.00 0.00 0.00 86 1010.7
20260506203216 23 0.0 1.6 0.00 0.00 0.00 86 1011.0
20260506202216 23 0.0 1.6 0.00 0.00 0.00 86 1011.2
20260506201236 23 248 1.6 3.2 0.00 0.00 0.00 85 1011.4
20260506200216 23 270 1.6 1.6 0.00 0.00 0.00 85 1011.4
20260506195237 23 0.0 3.2 0.00 0.00 0.00 86 1011.6
20260506194216 23 0.0 1.6 0.00 0.00 0.00 85 1012.0
20260506193216 23 180 3.2 8.0 0.00 0.00 0.00 85 1012.2
20260506192216 23 0.0 1.6 0.00 0.00 0.00 85 1012.3
20260506191216 23 0.0 1.6 0.00 0.00 0.00 85 1012.5
20260506190216 23 225 1.6 3.2 0.00 0.00 0.00 85 1012.5
20260506185216 23 0.0 0.0 0.00 0.00 0.00 84 1012.6
20260506184216 23 0.0 1.6 0.00 0.00 0.00 84 1012.8
20260506183216 23 0.0 1.6 0.00 0.00 0.00 83 1012.9
20260506182215 24 135 3.2 6.4 0.00 0.00 0.00 81 1012.8
20260506181216 24 158 1.6 4.8 0.00 0.00 0.00 81 1012.8
20260506180216 24 248 3.2 4.8 0.00 0.00 0.00 82 1012.8
20260506175216 24 225 1.6 4.8 0.00 0.00 0.00 81 1012.9
20260506174244 24 180 3.2 6.4 0.00 0.00 0.00 81 1012.9
20260506173237 24 248 1.6 4.8 0.00 0.00 0.00 82 1013.0
20260506172216 24 0.0 1.6 0.00 0.00 0.00 80 1013.2
20260506171216 24 113 1.6 3.2 0.00 0.00 0.00 81 1013.1
20260506170216 24 0.0 1.6 0.00 0.00 0.00 80 1012.9
20260506165216 24 270 1.6 3.2 0.00 0.00 0.00 78 1013.0
20260506164217 24 225 1.6 1.6 0.00 0.00 0.00 81 1013.0
20260506163218 24 68 1.6 3.2 0.00 0.00 0.00 80 1013.1
20260506162218 24 0.0 1.6 0.00 0.00 0.00 79 1013.2
20260506161237 24 270 1.6 3.2 0.00 0.00 0.00 78 1013.0
20260506160217 24 248 1.6 3.2 0.00 0.00 0.00 79 1013.2
20260506155218 23 0.0 0.0 0.00 0.00 0.00 82 1013.3
20260506154217 23 225 1.6 3.2 0.00 0.00 0.00 81 1013.3
20260506153217 23 0 1.6 4.8 0.00 0.00 0.00 82 1013.3
20260506152218 23 0.0 1.6 0.00 0.00 0.00 83 1013.4
20260506151217 22 203 1.6 4.8 0.00 0.00 0.00 84 1013.4
20260506150218 22 0.0 1.6 0.00 0.00 0.00 85 1013.4
20260506145217 21 0.0 1.6 0.00 0.00 0.00 86 1013.6
20260506144218 21 203 3.2 6.4 0.00 0.00 0.00 86 1013.6
20260506143217 21 135 1.6 3.2 0.00 0.00 0.00 87 1013.4
20260506142217 21 0.0 0.0 0.00 0.00 0.00 87 1013.6
20260506141217 21 0.0 0.0 0.00 0.00 0.00 87 1013.6
20260506140217 20 203 1.6 4.8 0.00 0.00 0.00 89 1013.4
20260506135238 20 248 1.6 3.2 0.00 0.00 0.00 90 1013.3
20260506134217 20 248 1.6 3.2 0.00 0.00 0.00 91 1013.4
20260506133217 19 225 1.6 3.2 0.00 0.00 0.00 91 1013.3
20260506132217 19 225 1.6 3.2 0.00 0.00 0.00 92 1013.5
20260506131217 19 0.0 3.2 0.00 0.00 0.00 91 1013.7
20260506130217 19 113 1.6 3.2 0.00 0.00 0.00 91 1013.6
20260506125217 19 0.0 1.6 0.00 0.00 0.00 91 1013.4
20260506124217 18 0.0 1.6 0.00 0.00 0.00 91 1013.1
20260506123237 18 0.0 0.0 0.00 0.00 0.00 91 1013.2
20260506122218 18 23 1.6 8.0 0.00 0.00 0.00 91 1012.8
20260506121219 18 180 1.6 1.6 0.00 0.00 0.00 91 1012.9
20260506120217 18 293 1.6 3.2 0.00 0.00 0.00 91 1012.7
20260506115217 18 248 1.6 8.0 0.00 0.00 0.00 91 1012.5
20260506114237 18 225 1.6 3.2 0.00 0.00 0.00 90 1012.5
20260506113217 18 0.0 1.6 0.00 0.00 0.00 90 1012.4
20260506112217 18 270 1.6 4.8 0.00 0.00 0.00 90 1012.2
20260506111217 18 0.0 1.6 0.00 0.00 0.00 89 1012.1
20260506110220 18 158 1.6 6.4 0.00 0.00 0.00 89 1012.1
20260506105917 18 0.0 1.6 0.00 0.00 0.00 89 1012.0
20260506104945 18 0.0 1.6 0.00 0.00 0.00 89 1011.8
20260506103916 19 225 1.6 8.0 0.00 0.00 0.00 89 1011.9
20260506102918 19 248 1.6 1.6 0.00 0.00 0.00 88 1011.8
20260506101916 19 248 1.6 1.6 0.00 0.00 0.00 88 1011.5
20260506100917 19 248 3.2 6.4 0.00 0.00 0.00 88 1011.3
20260506095937 19 180 1.6 1.6 0.00 0.00 0.00 87 1011.3
20260506094916 19 0.0 0.0 0.00 0.00 0.00 87 1011.4
20260506093917 19 158 1.6 4.8 0.00 0.00 0.00 87 1011.4
20260506092937 19 0.0 1.6 0.00 0.00 0.00 86 1011.3
20260506091916 19 0.0 1.6 0.00 0.00 0.00 86 1011.2
20260506090916 19 0.0 1.6 0.00 0.00 0.00 85 1011.1
20260506085917 19 0.0 1.6 0.00 0.00 0.00 85 1011.1
20260506084916 19 0.0 1.6 0.00 0.00 0.00 84 1010.9
20260506083957 19 158 3.2 6.4 0.00 0.00 0.00 84 1011.0
20260506082916 19 0.0 1.6 0.00 0.00 0.00 83 1010.9
20260506081916 19 113 1.6 3.2 0.00 0.00 0.00 83 1010.9
20260506080916 20 0.0 3.2 0.00 0.00 0.00 83 1010.9
20260506072916 20 135 1.6 1.6 0.00 0.00 0.00 81 1010.7
20260506071916 20 0.0 3.2 0.00 0.00 0.00 81 1010.8
20260506070916 20 293 3.2 4.8 0.00 0.00 0.00 81 1010.9
20260506061916 20 113 3.2 24.1 0.00 0.00 0.00 80 1011.6
20260506060916 20 0.0 1.6 0.00 0.00 0.00 79 1011.7
20260506050916 21 203 1.6 6.4 0.00 0.00 0.00 77 1011.9
20260506044917 21 225 1.6 4.8 0.00 0.00 0.00 77 1011.9
20260506043938 21 180 3.2 6.4 0.00 0.00 0.00 77 1011.7
20260506042937 21 225 1.6 3.2 0.00 0.00 0.00 77 1011.7
20260506041917 21 248 3.2 4.8 0.00 0.00 0.00 77 1011.7
20260506040917 20 248 3.2 8.0 0.00 0.00 0.00 78 1011.6
20260506035917 20 270 3.2 8.0 0.00 0.00 0.00 78 1011.6
20260506034917 20 0.0 1.6 0.00 0.00 0.00 78 1011.6
20260506033917 20 270 1.6 3.2 0.00 0.00 0.00 77 1011.4
20260506032917 20 135 1.6 8.0 0.00 0.00 0.00 76 1011.4
20260506031917 20 293 1.6 3.2 0.00 0.00 0.00 75 1011.5